Location: Siloam Springs
(36.1881°N, 94.5403°W)
Time: 11:38:19
(UTC-05:00)

RS-15 - Pass Details

Date: 30 May 2024
Orbit: 1896 x 2148 km, 64.8° (Epoch: 19 June)

Event Time Altitude Azimuth Distance (km) Brightness Sun altitude
Rises 02:35:47 0° 311° (NW) 5,306 10.6 -28.9°
Reaches altitude 10° 02:41:37 10° 287° (WNW) 4,286 9.7 -28.5°
Maximum altitude 02:45:56 13° 263° (W) 4,019 9.4 -28.2°
Enters shadow 02:46:02 13° 262° (W) 4,019 9.4 -28.2°
